Location: LDNL
(36.4545°S, 141.6685°E)
Time: 22:11:24
(UTC+11:00)

Explorer 11/Cluster Stage 4 - All Passes

Search period start: 30 January 2023 00:00
Search period end: 09 February 2023 00:00
Orbit: 466 x 1244 km, 28.8° (Epoch: 29 January)

Date Brightness Start Highest point End Pass type
(mag) Time Alt. Az. Time Alt. Az. Time Alt. Az.
30 Jan - 00:50:14 10° WNW 00:54:25 26° NNW 00:59:23 10° NE night (unlit)
30 Jan - 02:39:58 10° NW 02:42:30 13° NNW 02:45:13 10° N night (unlit)
30 Jan - 21:02:32 10° NW 21:05:37 23° NNE 21:09:03 10° ENE daylight
30 Jan - 22:49:32 10° WNW 22:53:17 31° N 22:57:43 10° ENE visible
31 Jan - 00:37:22 10° WNW 00:41:11 22° NNW 00:45:37 10° NE night (unlit)
31 Jan - 20:49:24 10° NW 20:52:28 24° N 20:55:49 10° ENE daylight
31 Jan - 22:36:34 10° WNW 22:40:07 29° N 22:44:15 10° ENE visible
01 Feb - 00:24:35 10° WNW 00:27:57 19° NNW 00:31:48 10° NNE night (unlit)
01 Feb - 18:50:39 10° N 18:51:52 11° NNE 18:53:06 10° NE daylight
01 Feb - 20:36:17 10° NW 20:39:19 24° N 20:42:34 10° ENE daylight
01 Feb - 22:23:35 10° WNW 22:26:56 26° N 22:30:46 10° NE visible
02 Feb - 00:11:53 10° NW 00:14:44 16° NNW 00:17:55 10° NNE night (unlit)
02 Feb - 18:36:55 10° NNW 18:38:41 13° NNE 18:40:26 10° NE daylight
02 Feb - 20:23:09 10° NW 20:26:10 24° N 20:29:21 10° ENE daylight
02 Feb - 22:10:37 10° WNW 22:13:47 24° N 22:17:18 10° NE visible
02 Feb - 23:59:19 10° NW 00:01:30 13° NNW 00:03:52 10° NNE visible
03 Feb - 18:23:18 10° NNW 18:25:29 15° NNE 18:27:38 10° NE daylight
03 Feb - 20:09:58 10° NW 20:13:00 25° N 20:16:08 10° ENE daylight
03 Feb - 21:57:39 10° WNW 22:00:36 22° N 22:03:50 10° NE visible
03 Feb - 23:47:11 10° NNW 23:48:17 11° NNW 23:49:25 10° N visible
04 Feb - 18:09:43 10° NNW 18:12:18 17° NNE 18:14:46 10° NE daylight
04 Feb - 19:56:47 10° NW 19:59:52 25° N 20:02:56 10° ENE daylight
04 Feb - 21:44:42 10° WNW 21:47:25 19° N 21:50:20 10° NE visible
05 Feb - 17:56:11 10° NW 17:59:07 19° N 18:01:50 10° ENE daylight
05 Feb - 19:43:35 10° WNW 19:46:42 25° N 19:49:45 10° NE daylight
05 Feb - 21:31:44 10° NW 21:34:15 17° NNW 21:36:50 10° NNE visible
06 Feb - 15:57:18 10° N 15:58:13 10° NNE 15:59:07 10° NNE daylight
06 Feb - 17:42:39 10° NW 17:45:55 21° N 17:48:53 10° ENE daylight
06 Feb - 19:30:20 10° WNW 19:33:31 25° N 19:36:34 10° NE daylight
06 Feb - 21:18:48 10° NW 21:21:02 15° NNW 21:23:18 10° NNE visible
07 Feb - 15:42:37 10° N 15:44:57 13° NNE 15:47:06 10° NE daylight
07 Feb - 17:29:06 10° NW 17:32:43 24° N 17:35:54 10° ENE daylight
07 Feb - 19:17:03 10° WNW 19:20:20 25° N 19:23:24 10° NE daylight
07 Feb - 21:05:53 10° NW 21:07:49 14° NNW 21:09:44 10° NNE visible
08 Feb - 15:28:28 10° NNW 15:31:40 16° NNE 15:34:32 10° NE daylight
08 Feb - 17:15:32 10° NW 17:19:28 26° N 17:22:54 10° ENE daylight
08 Feb - 19:03:45 10° WNW 19:07:07 25° N 19:10:13 10° NE daylight
08 Feb - 20:53:02 10° NW 20:54:33 12° NNW 20:56:04 10° N daylight
